STARLINK-2202 (47416 NORAD) Tracking and Keplerian Element Data

This shows tracking and keplerian element data for the satellite.

Feedback or suggestion? Click here.




ElementValue
Catalog47416
NameSTARLINK-2202
Epoch Orbit1165
Epoch Day99.60178064
Epoch Year2021
RAAN162.2409
Inclination97.4996
Eccentricity0.0011403
Argument of Perigee22.4947
Mean Anonmoly337.6782
Mean Motion15.14323706
Decay Rate9.69E-06
L11 47416U 21006D 21099.60178064 .00000969 00000-0 56420-4 0 9999
L22 47416 97.4996 162.2409 0011403 22.4947 337.6782 15.14323706 11650

Live tracking and technical data element details for STARLINK-2202 (NORAD 47416). STARLINK-2202 can be tracked NOW for your location showing map with azimuth and elevation plus other details from your city location.

Track the satellite on the map from your city or location and see movement details for azimuth, elevation, latitude, longitude, range, height, and movement on the map or in text.







IsCatalogInMostPopularTable: catalog: 47416, numindb: 18
Update: records affected: 1



GetName: 47416 STARLINK-2202

Hit Count: updated at: Sat, 10 Apr 2021 19:55:33 GMT